Regional Weather Roundup
Issued by NWS

Home | Current Version | Previous Version | Graphics & Text | Print | Product List | Glossary On
Versions: 1 2 3 4 5 6 7 8 9 10 11 12 13 14 15 16 17 18 19 20 21 22 23 24 25 26 27
000
ASUS45 KBOU 230007
RWRCO

WEATHER ROUNDUP FOR COLORADO
NATIONAL WEATHER SERVICE DENVER/BOULDER CO
600 PM MDT MON AUG 22 2016

NOTE: "FAIR" INDICATES FEW OR NO CLOUDS BELOW 12000 FEET WITH NO
SIGNIFICANT WEATHER AND/OR OBSTRUCTIONS TO VISIBILITY.

COZ001>005-013-030-031-230100-
...NORTHWEST COLORADO...

CITY           SKY/WX    TMP DP  RH WIND       PRES   REMARKS
CRAIG          FAIR      74  36  25 S9        30.07R
HAYDEN         FAIR      72  36  26 E12       30.11R
MEEKER         FAIR      72  43  35 E6        30.09F
MOUNT WERNER   NOT AVBL
STEAMBOAT SPGS FAIR      69  39  33 E10       30.13F
WALDEN         FAIR      61  36  39 S5        30.26R
$$

COZ006>008-011-230100-
...WEST CENTRAL VALLEYS...

CITY           SKY/WX    TMP DP  RH WIND       PRES   REMARKS
GRAND JUNCTION PTSUNNY   84  36  18 S12       29.99R
MONTROSE       FAIR      68  45  43 SE15      30.13R
EAGLE          PTSUNNY   70  43  37 W9        30.17R
RIFLE          LGT RAIN  69  51  52 SW14G20   30.10R
DELTA          NOT AVBL
NUCLA          DRIZZLE   61  54  77 E8        30.18F
$$

COZ017>023-064>068-230100-
...SOUTHWEST COLORADO...

CITY           SKY/WX    TMP DP  RH WIND       PRES   REMARKS
DURANGO        TSTM      63  51  65 NW12      30.18R
CORTEZ         FAIR      72  46  39 NE10      30.14S
PAGOSA SPRINGS CLOUDY    60  40  48 NE7       30.27R THUNDER
TELLURIDE      PTSUNNY   53  47  82 CALM      30.36F
WOLF CREEK PAS CLOUDY    37  37 100 N10       30.53R
$$

COZ009-010-012-014-032>034-037-058>063-230100-
...CENTRAL COLORADO...

CITY           SKY/WX    TMP DP  RH WIND       PRES   REMARKS
ASPEN          PTSUNNY   63  41  44 SE17G26   30.23R
BUENA VISTA    CLOUDY    65  34  31 W21G26    30.21R
COPPER MTN     PTSUNNY   54  36  50 NW14      30.50S
BERTHOUD PASS  CLOUDY    37  27  65 N10G17    30.52F
COTTONWOOD PAS CLOUDY    57  34  41 W20G29    30.35S
GUNNISON       CLOUDY    54  46  76 NW5       30.32R
KREMMLING      FAIR      70  32  24 S6        30.20S
LEADVILLE      LGT RAIN  50  39  66 VRB6      30.37R
MONARCH PASS   CLOUDY    43  34  70 W18       30.59S
SALIDA         FAIR      69  38  32 CALM      30.25R
SUNLIGHT       PTSUNNY   50  43  76 S5        30.46R
WILKERSON PASS NOT AVBL
$$

COZ069>075-230100-
...SAN LUIS VALLEY/SANGRE DE CRISTO MOUNTAINS...

CITY           SKY/WX    TMP DP  RH WIND       PRES   REMARKS
ALAMOSA        FAIR      67  41  38 SW9       30.17S
LA VETA PASS   FAIR      59  41  51 S10G24    30.33S
SAGUACHE       CLOUDY    68  41  37 SE14      30.22R
$$

COZ035-036-038>040-230100-
...NORTHERN COLORADO FRONT RANGE...

CITY           SKY/WX    TMP DP  RH WIND       PRES   REMARKS
DENVER INTL AP PTSUNNY   80  33  18 S23       29.97S
DMNS CITY PARK   N/A     77  37  23 E13G29    29.97R
AURORA         LGT RAIN  78  36  22 N23G32    29.99R
FRONT RANGE AP LGT RAIN  81  32  17 N20G56    30.00R
ERIE MUNI ARPT FAIR      84  34  16 NW10G16   29.95R
BOULDER MUN AP FAIR      81  36  19 W13       29.96R
CENTENNIAL     LGT RAIN  74  43  32 W12G26    30.00R
BROOMFIELD     PTSUNNY   84  36  17 W16G25    30.00R
FORT COLLINS   FAIR      81  37  21 W7        29.92R
LONGMONT       FAIR      82  38  20 NW8       29.96R
$$

COZ041-046-047-076>085-087-088-230100-
...PIKES PEAK/PALMER DIVIDE AND SOUTHERN FOOTHILLS...

CITY           SKY/WX    TMP DP  RH WIND       PRES   REMARKS
COLO. SPRINGS  PTSUNNY   80  35  19 NW8       30.01F
A. F. ACADEMY  FAIR      72  42  34 W7        30.03F
SCHRIEVER AFB  NOT AVBL
ELLICOTT       NOT AVBL
FALCON         FAIR      76  33  20 W3        30.05F
FORT CARSON    FAIR      76  39  26 NW13      29.98F
LIMON          FAIR      82  41  23 VRB5      29.94F
MONUMENT HILL  FAIR      73  32  21 SW7       30.08S
TRINIDAD       FAIR      82  40  22 SW9       29.98S
$$

COZ042>045-048>051-090-091-230100-
...NORTHEAST COLORADO...

CITY           SKY/WX    TMP DP  RH WIND       PRES   REMARKS
GREELEY ARPT   FAIR      82  41  23 NW14      29.92R
AKRON          FAIR      83  47  28 S10       29.90S
BURLINGTON     FAIR      83  52  34 S20G31    29.90F
WRAY           FAIR      86  54  32 S18       29.86
STERLING       FAIR      86  52  30 S8        29.84S
HOLYOKE        FAIR      84  54  34 S14       29.86S
FORT MORGAN    FAIR      82  48  30 CALM      29.89S
$$

COZ086-089-092>099-230100-
...SOUTHEAST COLORADO...

CITY           SKY/WX    TMP DP  RH WIND       PRES   REMARKS
PUEBLO         FAIR      86  40  19 N21       29.87S
LA JUNTA       FAIR      89  45  21 S17       29.85R
LAMAR          FAIR      86  55  34 S22G33    29.82S
SPRINGFIELD      N/A     83  55  38 S29G37    29.94S
$$




USA.gov is the U.S. government's official web portal to all federal, state and local government web resources and services.